PLEIADES 1B

Last updated on Mon Sep 07 2026 00:02:45 GMT+0000 (Coordinated Universal Time)

1 39019U 12068A 26249.64710499 .00000254 00000+0 64452-4 0 9997 2 39019 98.1888 323.5504 0001177 97.7900 262.3433 14.58563007732729
UTC large
Height (km)
Speed (km/s)
/
Latitude / Longitude
Inclination (degrees)
Orbital Period (minutes)
Azimuth
Elevation
Range (km)
Doppler Factor

Next 0 passes for location: London (51.5072 / 0.1276)

No passes found over London.
PLEIADES 1B